DLH7JF EDDF-EDDM

Flight info

Callsign DLH7JF
Flight time N/A
Altitude 23000
Route CINDY3L CINDY Z74 HAREM T104 ROKIL ROKIL1A
Aircraft B789/H-SADFGHIJ1J2J3J4J5LOP1P2RWXYZ/LB1D1

Departure

Time 2026-04-15 15:30
Airport Frankfurt Main Airport (EDDF)

Arrival

Time N/A
Airport Munich Airport (EDDM)
Time Latitude Longitude Altitude Speed Heading
2026-04-15 15:11 50.04642 8.56642 378 ft 0 kts 114°
2026-04-15 15:16 50.04647 8.56627 378 ft 2 kts 116°
2026-04-15 15:16 50.04655 8.56605 378 ft 2 kts 122°
2026-04-15 15:16 50.04664 8.56585 378 ft 2 kts 131°
2026-04-15 15:17 50.04675 8.56569 378 ft 2 kts 143°
2026-04-15 15:17 50.04687 8.56557 378 ft 2 kts 161°
2026-04-15 15:17 50.04699 8.56554 378 ft 2 kts 187°
2026-04-15 15:17 50.04711 8.56560 378 ft 2 kts 205°
2026-04-15 15:18 50.04725 8.56570 378 ft 2 kts 205°
2026-04-15 15:18 50.04733 8.56576 378 ft 0 kts 205°
2026-04-15 15:18 50.04733 8.56575 378 ft 0 kts 205°
2026-04-15 15:19 50.04732 8.56575 378 ft 0 kts 205°
2026-04-15 15:20 50.04722 8.56568 378 ft 4 kts 205°
2026-04-15 15:20 50.04676 8.56534 378 ft 10 kts 205°
2026-04-15 15:20 50.04596 8.56475 378 ft 15 kts 205°
2026-04-15 15:21 50.04514 8.56389 378 ft 12 kts 249°
2026-04-15 15:21 50.04482 8.56250 378 ft 17 kts 250°
2026-04-15 15:21 50.04440 8.56074 378 ft 15 kts 250°
2026-04-15 15:21 50.04410 8.55968 378 ft 9 kts 238°
2026-04-15 15:22 50.04369 8.55925 378 ft 8 kts 187°
2026-04-15 15:22 50.04325 8.55943 378 ft 8 kts 160°
2026-04-15 15:22 50.04267 8.55961 378 ft 8 kts 191°
2026-04-15 15:22 50.04230 8.55904 378 ft 10 kts 247°
2026-04-15 15:23 50.04199 8.55779 378 ft 15 kts 249°
2026-04-15 15:23 50.04157 8.55602 378 ft 20 kts 250°
2026-04-15 15:23 50.04103 8.55373 378 ft 24 kts 250°
2026-04-15 15:23 50.04042 8.55120 378 ft 27 kts 250°
2026-04-15 15:24 50.03977 8.54848 378 ft 26 kts 249°
2026-04-15 15:24 50.03917 8.54598 378 ft 24 kts 249°
2026-04-15 15:24 50.03862 8.54383 378 ft 19 kts 241°
2026-04-15 15:24 50.03794 8.54204 378 ft 20 kts 248°
2026-04-15 15:25 50.03741 8.53980 378 ft 22 kts 249°
2026-04-15 15:25 50.03686 8.53751 378 ft 24 kts 249°
2026-04-15 15:25 50.03628 8.53518 378 ft 22 kts 249°
2026-04-15 15:25 50.03573 8.53289 378 ft 24 kts 250°
2026-04-15 15:26 50.03515 8.53046 378 ft 26 kts 250°
2026-04-15 15:26 50.03466 8.52857 378 ft 11 kts 245°
2026-04-15 15:26 50.03447 8.52790 378 ft 1 kts 249°
2026-04-15 15:26 50.03442 8.52769 378 ft 0 kts 249°
2026-04-15 15:27 50.03442 8.52768 378 ft 0 kts 249°
2026-04-15 15:27 50.03440 8.52758 378 ft 3 kts 249°
2026-04-15 15:28 50.03426 8.52702 378 ft 6 kts 249°
2026-04-15 15:28 50.03412 8.52647 378 ft 5 kts 249°
2026-04-15 15:28 50.03385 8.52606 378 ft 5 kts 201°
2026-04-15 15:28 50.03358 8.52598 378 ft 3 kts 184°
2026-04-15 15:29 50.03353 8.52598 378 ft 0 kts 182°
2026-04-15 15:29 50.03343 8.52597 378 ft 6 kts 182°
2026-04-15 15:29 50.03230 8.52595 378 ft 40 kts 179°
2026-04-15 15:29 50.02681 8.52603 378 ft 115 kts 179°
2026-04-15 15:30 50.01677 8.52616 379 ft 170 kts 179°
2026-04-15 15:30 50.00417 8.52613 737 ft 187 kts 180°
2026-04-15 15:30 49.99149 8.52597 1659 ft 175 kts 180°
2026-04-15 15:30 49.97958 8.52598 2573 ft 173 kts 179°
2026-04-15 15:31 49.96770 8.52928 3331 ft 179 kts 158°
2026-04-15 15:31 49.96340 8.53318 3657 ft 178 kts 146°
2026-04-15 15:31 49.95556 8.54851 4018 ft 193 kts 118°
2026-04-15 15:31 49.94927 8.56832 4482 ft 216 kts 114°
2026-04-15 15:32 49.94363 8.59141 5050 ft 237 kts 114°
2026-04-15 15:32 49.93543 8.61463 5709 ft 252 kts 119°
2026-04-15 15:32 49.92666 8.63846 6431 ft 263 kts 120°
2026-04-15 15:32 49.91747 8.66358 7198 ft 272 kts 120°
2026-04-15 15:33 49.90807 8.68943 8045 ft 276 kts 120°
2026-04-15 15:33 49.89862 8.71551 8893 ft 279 kts 121°
2026-04-15 15:33 49.88902 8.74202 9653 ft 285 kts 121°
2026-04-15 15:33 49.87916 8.76923 10319 ft 294 kts 121°
2026-04-15 15:34 49.86882 8.79777 10653 ft 314 kts 121°
2026-04-15 15:34 49.86493 8.80850 10752 ft 320 kts 120°
2026-04-15 15:34 49.85378 8.83930 10944 ft 336 kts 120°
2026-04-15 15:34 49.84237 8.87087 11052 ft 350 kts 120°
2026-04-15 15:35 49.83034 8.90413 11514 ft 361 kts 120°
2026-04-15 15:35 49.81793 8.93836 12112 ft 366 kts 120°
2026-04-15 15:35 49.80541 8.97281 12812 ft 368 kts 120°
2026-04-15 15:35 49.79279 9.00748 13461 ft 372 kts 120°
2026-04-15 15:36 49.77999 9.04260 14025 ft 377 kts 120°
2026-04-15 15:36 49.76775 9.07867 14589 ft 382 kts 114°
2026-04-15 15:36 49.75902 9.11757 15175 ft 385 kts 108°
2026-04-15 15:36 49.74904 9.15625 15683 ft 389 kts 119°
2026-04-15 15:37 49.73495 9.19187 16288 ft 390 kts 124°
2026-04-15 15:37 49.71951 9.22653 16844 ft 393 kts 127°
2026-04-15 15:37 49.70294 9.26033 17342 ft 396 kts 129°
2026-04-15 15:37 49.68550 9.29354 17848 ft 399 kts 131°
2026-04-15 15:38 49.66752 9.32640 18363 ft 402 kts 132°
2026-04-15 15:38 49.64924 9.35915 18854 ft 405 kts 133°
2026-04-15 15:38 49.63068 9.39209 19324 ft 408 kts 133°
2026-04-15 15:38 49.61181 9.42539 19794 ft 411 kts 133°
2026-04-15 15:39 49.59302 9.45841 20253 ft 414 kts 133°
2026-04-15 15:39 49.57396 9.49183 20691 ft 417 kts 133°
2026-04-15 15:39 49.55472 9.52556 21114 ft 421 kts 133°
2026-04-15 15:39 49.53530 9.55958 21540 ft 424 kts 133°
2026-04-15 15:40 49.51577 9.59375 21963 ft 427 kts 133°
2026-04-15 15:40 49.49608 9.62818 22374 ft 430 kts 133°
2026-04-15 15:40 49.47625 9.66280 22723 ft 432 kts 133°
2026-04-15 15:40 49.45646 9.69732 22906 ft 433 kts 133°
2026-04-15 15:41 49.43644 9.73219 22974 ft 436 kts 133°
2026-04-15 15:41 49.41630 9.76721 22984 ft 440 kts 133°
2026-04-15 15:41 49.39591 9.80263 22991 ft 442 kts 133°
2026-04-15 15:41 49.37547 9.83804 22996 ft 444 kts 133°
2026-04-15 15:42 49.35494 9.87351 23000 ft 445 kts 133°
2026-04-15 15:42 49.33435 9.90906 23001 ft 446 kts 133°
2026-04-15 15:42 49.31368 9.94467 22998 ft 449 kts 133°
2026-04-15 15:42 49.29275 9.98069 22996 ft 455 kts 133°
2026-04-15 15:43 49.27164 10.01695 22996 ft 458 kts 133°
2026-04-15 15:43 49.26841 10.02249 22995 ft 459 kts 133°
2026-04-15 15:45 49.26304 10.03168 22995 ft 459 kts 131°
2026-04-15 15:45 49.24182 10.06814 22993 ft 457 kts 131°
2026-04-15 15:46 49.22085 10.10433 22994 ft 453 kts 131°
2026-04-15 15:46 49.19998 10.14024 22999 ft 451 kts 131°
2026-04-15 15:46 49.17921 10.17588 23002 ft 446 kts 131°
2026-04-15 15:46 49.15879 10.21084 22661 ft 436 kts 131°
2026-04-15 15:47 49.13859 10.24481 22228 ft 428 kts 133°
2026-04-15 15:47 49.11830 10.27786 21755 ft 425 kts 133°
2026-04-15 15:47 49.09811 10.31034 21354 ft 420 kts 134°
2026-04-15 15:47 49.07800 10.34259 20987 ft 417 kts 134°
2026-04-15 15:48 49.05808 10.37450 20508 ft 416 kts 134°
2026-04-15 15:48 49.03822 10.40632 20128 ft 411 kts 134°
2026-04-15 15:48 49.01864 10.43768 19767 ft 407 kts 134°
2026-04-15 15:48 48.99911 10.46889 19287 ft 406 kts 134°
2026-04-15 15:49 48.98377 10.49339 19007 ft 402 kts 134°
2026-04-15 15:49 48.97888 10.50119 18920 ft 401 kts 134°
2026-04-15 15:49 48.96589 10.52191 18685 ft 399 kts 134°
2026-04-15 15:50 48.94051 10.56242 18082 ft 398 kts 134°
2026-04-15 15:50 48.92150 10.59272 17751 ft 393 kts 134°
2026-04-15 15:50 48.90264 10.62273 17361 ft 392 kts 134°
2026-04-15 15:50 48.88383 10.65262 16923 ft 389 kts 134°
2026-04-15 15:51 48.86534 10.68194 16601 ft 385 kts 134°
2026-04-15 15:51 48.84671 10.71146 16226 ft 384 kts 134°
2026-04-15 15:51 48.82821 10.74073 15775 ft 382 kts 134°
2026-04-15 15:51 48.80997 10.76956 15457 ft 378 kts 134°
2026-04-15 15:52 48.79177 10.79821 15110 ft 376 kts 135°
2026-04-15 15:52 48.77365 10.82665 14664 ft 375 kts 135°
2026-04-15 15:52 48.76170 10.84538 14440 ft 372 kts 135°
2026-04-15 15:52 48.74374 10.87352 14126 ft 370 kts 135°
2026-04-15 15:53 48.72583 10.90155 13708 ft 368 kts 135°
2026-04-15 15:53 48.70233 10.93831 13253 ft 361 kts 135°
2026-04-15 15:53 48.68482 10.96563 12924 ft 361 kts 135°
2026-04-15 15:53 48.67336 10.98349 12634 ft 358 kts 135°
2026-04-15 15:54 48.65618 11.01022 12294 ft 349 kts 135°
2026-04-15 15:54 48.63948 11.03620 12001 ft 339 kts 135°
2026-04-15 15:54 48.62323 11.06144 11613 ft 333 kts 135°
2026-04-15 15:54 48.60721 11.08629 11294 ft 324 kts 135°
2026-04-15 15:55 48.59175 11.11027 11029 ft 313 kts 135°
2026-04-15 15:55 48.57607 11.13237 10670 ft 306 kts 143°
2026-04-15 15:55 48.55890 11.15074 10390 ft 298 kts 147°
2026-04-15 15:55 48.54188 11.16796 10165 ft 289 kts 148°
2026-04-15 15:56 48.52527 11.18470 9849 ft 287 kts 148°
2026-04-15 15:56 48.50812 11.20006 9479 ft 286 kts 155°
2026-04-15 15:56 48.49015 11.21211 9252 ft 280 kts 158°
2026-04-15 15:56 48.47243 11.22348 9025 ft 276 kts 158°
2026-04-15 15:57 48.45472 11.23484 8684 ft 276 kts 158°
2026-04-15 15:57 48.43722 11.24608 8433 ft 272 kts 158°
2026-04-15 15:57 48.41998 11.25719 8214 ft 268 kts 158°
2026-04-15 15:57 48.40283 11.26826 7888 ft 268 kts 157°
2026-04-15 15:58 48.38573 11.27929 7625 ft 266 kts 157°
2026-04-15 15:58 48.36892 11.29015 7423 ft 262 kts 157°
2026-04-15 15:58 48.35203 11.30105 7098 ft 264 kts 157°
2026-04-15 15:58 48.33519 11.31191 6859 ft 262 kts 156°
2026-04-15 15:59 48.31882 11.32333 6571 ft 261 kts 149°
2026-04-15 15:59 48.30656 11.34331 6194 ft 262 kts 118°
2026-04-15 15:59 48.30303 11.36934 6018 ft 253 kts 88°
2026-04-15 15:59 48.30733 11.39436 5943 ft 243 kts 69°
2026-04-15 16:00 48.31246 11.41795 5770 ft 236 kts 81°
2026-04-15 16:00 48.31511 11.44173 5688 ft 227 kts 81°
2026-04-15 16:00 48.31752 11.46498 5498 ft 222 kts 82°
2026-04-15 16:00 48.31964 11.48737 5253 ft 215 kts 82°
2026-04-15 16:01 48.32172 11.51061 5096 ft 196 kts 83°
2026-04-15 16:01 48.32330 11.52883 4896 ft 191 kts 83°
2026-04-15 16:01 48.32498 11.54881 4501 ft 194 kts 83°
2026-04-15 16:01 48.32663 11.56908 4034 ft 197 kts 83°
2026-04-15 16:02 48.32828 11.58944 3645 ft 190 kts 83°
2026-04-15 16:02 48.32975 11.60821 3350 ft 173 kts 83°
2026-04-15 16:02 48.33101 11.62522 3134 ft 156 kts 83°
2026-04-15 16:02 48.33217 11.64097 2947 ft 153 kts 83°
2026-04-15 16:03 48.33338 11.65688 2740 ft 151 kts 83°
2026-04-15 16:03 48.33442 11.67026 2570 ft 150 kts 83°
2026-04-15 16:03 48.33513 11.67915 2458 ft 149 kts 83°
2026-04-15 16:04 48.33634 11.69455 2262 ft 148 kts 83°
2026-04-15 16:04 48.33754 11.70989 2066 ft 148 kts 82°
2026-04-15 16:04 48.33878 11.72516 1884 ft 147 kts 83°
2026-04-15 16:04 48.33988 11.74053 1693 ft 150 kts 83°
2026-04-15 16:05 48.34100 11.75598 1517 ft 145 kts 83°
2026-04-15 16:05 48.34174 11.76537 1501 ft 120 kts 82°
2026-04-15 16:05 48.34199 11.76843 1501 ft 97 kts 82°
2026-04-15 16:05 48.34259 11.77616 1501 ft 61 kts 81°